ニート彗星

180P/NEAT (2008)

English version
Home page
Total 6,336 html files since Dec. 4, 1995
Updated on October 12, 2008

---------------------------------------------------------------------

・ プロフィール

符号 180P/2006 U3
検出日 2006年10月23日
検出光度 22.4等
検出者 J. L. Ortiz and A. Mora (La Palma)

・ 写真集

・ 軌道要素

                    Epoch = 2008 May  14.0 TT
     T = 2008 May  26.7064 TT         Peri. =  94.9130
     e = 0.357635                     Node  =  84.7534  2000.0
     q = 2.468702 AU                  Incl. =  16.9133
       a =  3.843143 AU    n = 0.1308200    P =   7.534 years

・ 星図

・ 光度変化

        m1 = 7.5 + 5 logΔ + 20.0 log r

---------------------------------------------------------------------

軌道要素は Dr. Brian G. Marsden の計算によるもので、 IAUC 8765 に掲載されたものです。
星図は StellaNavigator Ver.2.0 for Windows (アストロアーツ 編著 / アスキー出版局刊) で作成したものです。
光度グラフはComet for Windowsで作成したものです。

---------------------------------------------------------------------

Copyright(C) 1995-2008 Seiichi Yoshida (comet@aerith.net). All rights reserved.